This demonstration page uses our WeatherBlox Daily Observations layout. Learn more.

Left ArrowRight Arrow

Hourly Observations for September 29, 2015

Temp ( °F °C ) Dew Point ( °F °C ) Humidity (%) Winds ( mph kmh ) Pressure ( in mb ) Visibility ( mi km ) Precip ( " mm )
12:36 am 00:36 Cloudy 70 21 64 18 83 83 N 9 15 29.94 1014 10 16 0.00 0.00
12:52 am 00:52 Cloudy 69 20.6 65 18.3 87 87 N 9 15 29.94 1014 10 16 0.00 0.00
1:52 am 01:52 Cloudy 67 19.4 63 17.2 87 87 N 17 28 29.96 1015 10 16 0.00 0.00
2:36 am 02:36 Cloudy with Heavy Rain 61 16 57 14 88 88 NNW 24 39 30.03 1017 2 3 0.00 0.00
2:45 am 02:45 Cloudy with Light Rain 59 15 58 14.4 96 96 NNW 25 41 30.03 1017 3 5 0.15 3.81
2:52 am 02:52 Cloudy with Light Rain 59 15 57 13.9 93 93 NNW 26 43 30.02 1017 10 16 0.15 3.81
3:24 am 03:24 Cloudy with Rain 55 13 54 12 94 94 NNE 24 39 30.03 1017 4 6 0.00 0.00
3:26 am 03:26 Windy with Storms Likely 55 13 54 12 94 94 NE 28 44 30.03 1017 4 6 0.00 0.00
3:45 am 03:45 Cloudy with Rain 57 13.9 54 12.2 90 90 NNE 17 28 30.03 1017 8 13 0.03 0.76
3:52 am 03:52 Cloudy 57 13.9 54 12.2 90 90 NE 17 28 30.02 1017 7 11 0.06 1.52
4:34 am 04:34 Cloudy with Light Rain 57 14 55 13 94 94 NNE 12 19 30.06 1018 8 13 0.00 0.00
4:52 am 04:52 Cloudy with Light Rain 57 13.9 55 12.8 93 93 NNE 6 9 30.04 1017 10 16 0.07 1.78
5:52 am 05:52 Cloudy 57 13.9 54 12.2 90 90 N 12 19 30.06 1018 10 16 0.01 0.25
6:52 am 06:52 Mostly Cloudy 57 13.9 54 12.2 90 90 N 8 13 30.08 1019 10 16 0.00 0.00
7:52 am 07:52 Partly Cloudy 56 13.3 54 12.2 93 93 N 10 17 30.11 1020 10 16 0.00 0.00
8:52 am 08:52 Partly Cloudy 58 14.4 53 11.7 84 84 NNE 14 22 30.12 1020 10 16 0.00 0.00
9:52 am 09:52 Partly Cloudy 62 16.7 52 11.1 70 70 NNE 12 19 30.12 1020 10 16 0.00 0.00
10:52 am 10:52 Partly Cloudy 64 17.8 51 10.6 63 63 ENE 15 24 30.14 1021 10 16 0.00 0.00
11:52 am 11:52 Partly Cloudy 67 19.4 51 10.6 57 57 ENE 15 24 30.14 1021 10 16 0.00 0.00
12:52 pm 12:52 Partly Cloudy 69 20.6 48 8.9 47 47 E 15 24 30.15 1021 10 16 0.00 0.00
1:52 pm 13:52 Partly Cloudy 71 21.7 46 7.8 41 41 ENE 13 20 30.15 1021 10 16 0.00 0.00
2:52 pm 14:52 Partly Cloudy 72 22.2 42 5.6 34 34 ENE 17 28 30.14 1021 10 16 0.00 0.00
3:52 pm 15:52 Partly Cloudy 72 22.2 39 3.9 30 30 ENE 13 20 30.13 1020 10 16 0.00 0.00
4:52 pm 16:52 Partly Cloudy 71 21.7 39 3.9 31 31 NE 12 19 30.13 1020 10 16 0.00 0.00
5:52 pm 17:52 Mostly Sunny 70 21.1 40 4.4 34 34 NE 12 19 30.13 1020 10 16 0.00 0.00
6:52 pm 18:52 Mostly Sunny 67 19.4 43 6.1 42 42 NE 5 7 30.14 1021 10 16 0.00 0.00
7:52 pm 19:52 Mostly Clear 61 16.1 51 10.6 70 70 ENE 6 9 30.14 1021 10 16 0.00 0.00
8:52 pm 20:52 Clear 56 13.3 48 8.9 75 75 NW 6 9 30.16 1021 10 16 0.00 0.00
9:52 pm 21:52 Clear 53 11.7 50 10 89 89 N 3 6 30.16 1021 10 16 0.00 0.00
10:52 pm 22:52 Clear 56 13.3 49 9.4 77 77 Calm 30.17 1022 10 16 0.00 0.00
11:52 pm 23:52 Clear 58 14.4 41 5 53 53 ENE 10 17 30.18 1022 10 16 0.00 0.00

Powered by AerisWeather